Temperature
18 18 18 17 17 17 17 17 17 16 16 16 16 16 16 16 16 16 16 16 16 16 16 15 15 15 15 15 15 15 15 15 14 15 14 14 14 14 14 14 14 14 14
19 18 17 17 17 17 17 17 16 16 16 16 16 16 16 16 16 16 16 16 16 16 15 15 15 15 15 15 15 15 15 14 14 15 15 15 14 14 14 14 14 14 13
19 18 18 17 17 17 17 17 17 16 16 16 16 16 16 16 16 16 16 16 16 15 15 15 15 15 15 15 15 15 15 14 14 14 15 15 15 14 14 13 13 13 13
19 18 18 17 17 17 17 17 17 16 16 16 16 16 16 16 16 16 16 16 15 15 15 15 15 15 15 15 15 15 14 14 14 14 14 15 14 15 14 13 13 13 13
18 18 18 17 17 17 17 17 17 16 16 16 16 16 16 16 16 15 15 15 15 15 15 15 15 15 15 15 15 15 14 14 14 14 14 14 14 14 14 14 13 13 13
18 18 17 17 17 17 17 17 17 16 16 16 16 16 16 16 15 15 15 15 15 15 15 15 15 15 15 15 15 15 15 14 14 14 14 14 14 14 14 14 13 13 13
18 18 17 17 17 17 17 17 17 16 16 16 16 16 16 16 15 15 15 15 15 15 15 15 15 15 15 15 15 14 15 15 14 14 14 14 14 14 14 14 14 13 12
18 18 17 17 17 17 17 17 17 16 16 16 16 16 16 16 15 15 15 15 15 15 15 15 15 15 15 15 15 14 14 14 14 14 14 14 14 14 14 13 13 13 13
18 17 17 17 17 16 17 17 16 16 16 16 16 16 16 15 15 15 15 15 15 15 15 15 15 15 14 14 14 14 14 14 14 14 14 14 14 14 13 13 13 13 13
18 17 17 17 17 16 17 17 17 16 16 16 16 16 16 15 15 15 15 15 15 15 15 15 15 15 14 14 14 14 14 14 14 14 14 14 14 13 13 13 13 13 13
18 17 17 16 16 16 16 16 16 16 16 16 16 16 15 15 15 15 15 15 15 15 15 15 15 14 14 14 14 14 14 14 14 14 14 14 13 13 13 13 13 13 12
17 17 16 16 16 16 16 16 16 16 16 16 15 15 15 15 15 15 15 15 15 14 15 14 14 14 14 14 14 14 14 14 14 13 13 13 13 13 13 13 12 12 12
17 16 16 16 16 16 16 16 16 16 16 16 16 15 15 15 15 15 15 14 14 14 14 14 14 14 14 14 14 14 13 13 13 13 13 13 13 13 13 13 12 12 12
16 16 15 15 16 16 16 15 15 16 15 15 15 15 15 15 15 15 14 14 14 14 14 14 14 14 14 14 14 13 13 13 13 13 13 13 13 13 13 12 12 12 12
16 15 15 15 15 15 15 15 15 15 15 15 15 15 15 15 15 14 14 14 14 14 14 14 14 14 14 14 13 13 13 13 13 13 13 13 13 13 12 12 12 12 12
16 15 15 15 15 15 15 15 15 15 15 15 15 15 15 15 15 14 14 14 14 14 14 14 14 14 14 14 14 13 13 13 13 13 12 12 12 12 12 12 12 12 11
15 15 15 15 15 15 15 15 15 15 15 15 15 15 15 14 14 14 14 14 14 14 14 14 14 13 13 13 13 13 13 13 12 12 12 12 12 12 12 12 12 12 11
15 15 15 15 15 15 15 15 15 15 15 15 14 14 14 14 14 14 14 14 14 14 14 14 14 13 13 13 13 13 13 13 12 12 12 12 12 12 11 11 11 11 11
15 15 14 14 14 15 15 14 14 14 14 14 14 14 14 14 14 14 14 14 14 14 14 13 13 13 13 13 13 13 12 12 12 12 12 12 12 12 12 11 11 11 11
14 14 14 14 14 14 14 14 14 14 14 14 14 14 14 14 14 14 14 14 14 13 13 13 13 13 13 13 13 12 12 12 12 12 12 12 12 12 11 11 11 10 10
14 14 14 14 14 14 14 14 14 14 14 14 14 14 13 14 14 14 14 14 13 13 13 13 13 13 13 13 13 12 12 12 12 12 12 12 12 11 11 11 10 10 10
14 14 14 14 14 14 14 14 14 14 14 14 13 13 13 13 13 13 13 13 13 13 13 13 13 12 12 12 12 12 12 12 11 11 11 11 11 11 11 11 10 10 10
14 14 14 14 14 13 13 13 13 13 13 13 13 13 13 13 13 13 13 13 13 13 12 12 12 12 12 12 12 12 11 11 11 11 11 11 11 10 10 10 10 10 9
14 14 13 13 13 13 13 13 13 13 13 13 13 13 13 13 13 13 13 13 13 12 12 12 12 12 12 12 12 11 11 11 11 11 11 11 10 10 10 10 9 9 9
14 13 13 13 13 13 13 13 13 13 13 13 13 13 13 13 13 13 13 12 12 12 12 12 12 12 12 12 11 11 11 11 11 10 10 10 10 10 9 9 9 9 9
14 13 13 13 13 13 13 13 13 13 13 13 12 12 12 13 13 12 12 12 12 12 12 12 12 12 12 12 11 11 11 11 11 10 10 10 9 9 9 9 9 9 8
Wind_Speed
4 4 4 5 6 7 7 7 7 6 5 4 4 3 3 3 3 2 3 4 3 3 4 3 4 4 3 4 4 4 5 3 3 3 3 3 4 4 4 4 4 5 6
4 4 4 4 6 7 7 7 7 7 6 4 3 2 2 2 2 2 3 3 3 4 3 4 4 4 3 4 4 4 3 3 2 1 1 1 2 3 4 3 3 4 5
5 5 5 5 6 7 7 7 7 7 7 6 4 3 3 2 3 3 2 3 4 4 4 4 4 4 4 4 4 4 4 3 2 1 1 1 1 2 2 3 3 4 3
6 5 6 6 7 7 7 7 7 7 7 7 6 6 4 3 3 3 3 4 4 4 4 4 4 4 4 4 5 4 3 3 2 1 1 2 0 1 1 2 3 3 3
7 6 7 7 7 7 7 7 7 7 7 7 7 6 5 4 3 3 4 4 4 4 4 4 4 4 3 4 3 4 3 3 2 2 1 1 1 2 1 1 1 2 2
6 6 6 6 7 7 7 7 7 7 7 8 8 7 6 5 5 5 4 4 3 3 4 4 4 4 3 3 3 4 4 3 2 2 2 2 2 2 2 2 2 1 2
6 6 6 7 7 8 9 9 9 8 8 8 8 7 7 6 6 6 5 4 3 3 4 4 4 3 3 3 4 3 3 3 2 2 2 1 1 1 2 2 2 1 1
4 5 6 6 7 8 10 10 10 9 8 8 8 7 7 5 5 5 4 4 3 3 4 4 4 4 4 4 4 3 3 3 2 2 2 1 1 1 1 2 2 2 1
3 4 5 5 6 8 10 10 10 10 9 8 7 7 7 6 5 5 5 4 4 3 4 4 4 4 4 4 4 3 3 2 2 2 2 1 1 1 1 1 2 2 2
3 3 4 5 5 6 8 10 10 10 9 8 7 6 6 6 6 6 5 5 4 4 4 5 4 5 4 4 3 3 2 3 2 1 1 1 1 1 1 1 2 2 1
2 3 3 4 5 5 7 8 9 9 8 8 8 7 6 6 6 5 5 5 5 5 5 5 4 4 4 4 4 3 3 3 3 3 2 2 2 2 1 1 1 1 1
2 2 2 3 4 5 7 7 8 8 8 8 7 7 6 6 6 6 6 6 6 5 5 5 5 4 4 4 4 4 4 3 3 2 2 2 2 2 1 1 1 1 1
1 1 2 2 3 4 6 7 7 7 7 7 7 6 6 6 6 6 6 6 6 6 5 5 5 4 4 4 4 4 4 3 2 2 2 2 2 2 2 2 2 2 2
1 2 2 2 2 4 6 6 6 6 6 7 7 7 7 6 6 6 5 5 6 6 6 5 5 4 4 4 4 4 4 3 3 2 2 2 2 2 2 2 2 2 3
1 2 2 2 2 4 5 5 6 6 6 7 7 7 7 6 6 5 5 5 5 5 5 5 5 4 4 3 4 4 4 4 3 3 2 1 2 3 1 1 2 3 3
2 2 2 2 2 4 5 5 6 6 6 7 7 6 6 6 6 6 5 5 4 5 4 5 5 4 3 3 2 3 4 4 3 3 3 3 3 4 4 4 3 1 1
2 2 2 2 3 4 4 5 6 5 6 6 6 7 7 7 6 6 6 5 5 4 4 4 4 4 4 6 4 3 4 3 3 3 3 2 2 3 4 5 5 3 3
2 2 2 2 2 3 4 5 6 6 6 6 6 6 7 6 6 6 5 5 5 5 4 4 4 4 4 6 6 5 4 3 3 3 3 3 3 2 3 4 4 3 3
2 2 2 3 3 3 3 5 6 6 7 7 6 7 7 7 7 7 6 5 5 5 4 4 5 5 5 6 6 5 4 4 4 3 3 3 3 3 2 3 4 4 3
2 2 2 2 2 3 3 5 5 6 7 7 6 6 7 7 7 7 6 5 5 5 4 4 5 5 5 7 7 6 4 5 4 3 3 2 2 4 3 4 4 3 3
2 2 3 3 3 3 4 4 5 5 5 6 6 6 7 7 7 6 6 6 5 5 4 5 4 4 4 6 6 6 4 4 5 4 4 3 5 5 4 3 3 2 2
2 3 3 3 3 3 4 4 4 4 5 5 6 6 6 6 5 6 5 5 6 6 5 5 4 3 4 4 5 6 5 3 4 4 4 4 7 6 5 3 3 4 3
3 4 4 3 3 4 4 4 4 4 5 6 6 6 6 5 6 6 6 6 5 5 5 4 4 4 3 4 6 6 6 4 3 3 3 5 7 7 5 4 5 5 3
4 4 4 4 4 4 4 4 4 5 6 7 7 6 6 6 6 5 5 5 6 5 5 5 5 4 4 4 4 4 5 5 4 3 5 6 6 4 3 5 5 3 2
4 5 5 5 5 4 4 4 4 5 6 6 6 7 6 6 5 5 4 6 6 6 6 6 6 6 6 5 6 5 5 5 5 5 4 4 4 4 4 4 4 4 3
5 5 5 5 5 5 5 4 5 6 6 6 6 5 5 5 5 5 4 1 2 3 3 3 4 4 4 7 8 6 5 6 7 6 5 5 5 5 5 5 5 4 4
Wind_Direction
215 206 204 202 199 199 199 192 186 180 172 171 181 179 176 172 163 160 157 163 164 164 160 172 160 159 158 159 152 140 137 130 123 117 106 92 71 64 60 51 49 56 51
216 202 199 197 200 199 201 199 192 184 177 175 181 180 174 173 159 160 157 169 171 170 171 174 166 166 162 162 159 160 161 156 183 196 165 142 120 78 58 60 53 50 56
225 209 203 200 196 197 197 195 192 185 180 176 172 164 157 176 174 169 165 171 180 175 181 177 177 172 171 171 176 177 186 188 202 253 284 276 89 103 84 62 59 50 46
227 220 210 209 201 198 195 193 190 188 184 183 187 192 193 195 194 186 174 176 180 175 179 179 182 178 180 180 188 187 194 205 208 205 288 314 3 240 154 115 72 57 50
225 222 217 213 208 197 191 193 189 185 186 191 191 202 203 196 184 182 180 182 174 174 181 180 179 182 187 194 191 190 205 211 227 216 204 218 214 242 214 177 139 88 62
221 221 218 210 204 194 188 188 188 185 187 193 194 199 198 195 188 189 187 183 174 178 182 183 186 188 188 189 192 196 202 217 218 229 219 214 221 210 214 202 171 127 75
217 215 214 210 203 195 190 188 186 186 188 194 196 198 199 198 199 195 192 193 186 183 185 182 188 190 185 182 187 196 205 207 208 224 234 238 250 229 228 203 172 150 137
215 213 213 211 205 200 194 191 189 190 188 193 196 198 196 200 202 204 202 196 195 187 183 182 179 183 180 180 184 196 197 203 201 218 220 225 235 219 207 197 182 186 173
216 215 212 208 205 204 197 193 191 190 190 194 194 196 195 195 196 200 201 196 190 181 180 181 182 182 182 184 183 195 190 191 205 209 197 200 166 176 201 208 225 244 223
224 216 212 211 208 206 199 194 195 195 192 194 194 194 195 192 195 198 199 194 186 179 181 185 180 180 179 184 186 188 189 184 175 190 188 164 167 152 196 219 240 263 252
231 213 207 204 203 199 192 192 196 198 195 192 193 190 188 190 191 195 195 192 191 192 193 190 185 183 182 183 180 184 179 181 174 176 178 167 167 169 184 211 219 226 191
231 215 205 192 192 196 188 187 195 197 196 193 190 190 184 187 193 196 196 195 194 196 198 195 192 190 190 190 185 181 182 184 182 178 173 159 151 156 175 184 173 148 157
202 194 189 191 189 193 187 186 191 193 190 188 186 188 191 195 196 196 195 195 196 194 195 193 192 191 191 192 191 182 177 176 178 182 174 160 156 160 158 163 161 146 134
194 190 195 196 195 184 180 182 184 188 185 184 185 190 196 196 196 193 192 193 194 194 194 190 187 189 189 193 193 185 176 172 174 180 180 176 174 178 165 168 166 157 148
208 194 201 210 202 182 178 178 181 185 184 184 185 189 192 188 184 181 184 184 185 191 188 179 180 181 183 192 192 184 179 174 171 169 164 141 92 50 92 173 174 166 164
215 214 215 210 216 195 187 183 186 187 187 188 185 182 182 178 177 178 172 168 173 177 173 179 178 174 172 132 148 191 177 173 174 174 168 154 143 122 108 90 64 31 186
226 229 229 219 218 210 198 191 188 184 186 188 183 178 177 174 179 176 167 166 171 171 172 176 177 180 158 142 152 184 186 176 178 182 171 153 151 162 152 135 132 100 56
234 235 238 235 228 208 198 191 184 186 188 190 186 181 177 177 177 175 174 179 174 172 181 178 178 173 161 149 156 173 183 175 178 182 178 171 163 153 164 151 141 128 112
236 230 238 233 217 191 188 186 185 188 192 194 191 182 180 182 180 178 178 181 177 179 184 182 177 176 169 158 167 185 179 176 175 173 174 174 163 128 182 166 155 144 126
242 239 235 215 192 178 183 186 189 191 196 196 194 185 182 185 187 183 179 175 178 184 181 180 185 183 183 163 176 198 182 180 175 170 164 133 151 143 179 181 175 172 159
242 230 200 196 187 182 188 194 196 200 200 194 191 187 184 188 186 179 176 173 175 177 179 178 180 183 179 165 176 199 194 187 184 178 176 162 145 148 170 203 185 168 175
228 201 190 192 188 190 196 202 207 205 198 191 190 188 185 183 178 173 174 178 174 174 176 178 174 177 172 170 173 183 197 206 191 190 184 161 154 157 168 178 128 135 178
210 188 191 193 195 197 204 208 209 199 195 194 192 192 188 183 180 178 176 180 180 183 184 185 185 181 176 165 160 175 183 195 196 178 133 144 161 164 165 156 157 171 183
213 194 192 197 202 204 214 215 205 196 197 195 193 192 189 186 187 186 186 186 187 188 189 190 193 188 183 180 174 177 172 167 173 163 140 144 154 174 154 160 173 194 196
215 203 205 208 212 210 217 216 203 199 202 199 197 194 190 187 191 192 199 201 199 197 196 198 198 194 197 187 174 181 186 189 184 167 164 168 171 180 186 189 189 195 195
215 212 216 217 219 215 216 214 209 204 204 202 198 197 191 188 190 190 191 186 213 167 187 191 201 198 170 148 158 169 165 157 159 169 179 188 194 196 198 200 203 206 205
Height
1540 1540 1541 1541 1542 1543 1545 1546 1547 1549 1551 1552 1554 1555 1556 1557 1558 1558 1559 1560 1561 1561 1562 1563 1564 1564 1564 1564 1565 1565 1565 1565 1566 1566 1565 1565 1565 1565 1563 1563 1562 1562 1560
1538 1538 1539 1539 1540 1542 1543 1545 1546 1548 1550 1551 1553 1554 1555 1556 1557 1558 1559 1560 1560 1561 1562 1563 1563 1563 1563 1564 1564 1565 1565 1566 1566 1566 1566 1566 1567 1565 1564 1563 1562 1562 1561
1535 1536 1537 1538 1539 1540 1541 1543 1545 1546 1548 1550 1552 1553 1554 1555 1556 1557 1558 1558 1560 1561 1561 1562 1562 1563 1563 1563 1564 1564 1565 1566 1566 1566 1567 1566 1565 1566 1565 1564 1563 1562 1561
1533 1534 1535 1536 1537 1538 1540 1542 1543 1545 1547 1548 1550 1552 1553 1555 1555 1556 1557 1558 1559 1560 1560 1561 1562 1562 1563 1563 1564 1564 1565 1565 1565 1565 1565 1566 1565 1565 1565 1565 1563 1562 1561
1530 1531 1532 1534 1535 1537 1538 1540 1542 1544 1545 1547 1549 1551 1552 1553 1554 1555 1556 1557 1558 1558 1559 1560 1561 1561 1562 1562 1563 1563 1564 1564 1565 1565 1564 1564 1564 1564 1564 1564 1564 1562 1561
1528 1529 1530 1531 1533 1535 1536 1538 1540 1542 1544 1545 1547 1549 1551 1552 1553 1554 1555 1556 1556 1557 1558 1559 1560 1560 1561 1561 1562 1562 1563 1563 1563 1564 1564 1564 1563 1563 1563 1563 1562 1562 1561
1525 1526 1528 1529 1530 1532 1534 1536 1538 1540 1542 1544 1546 1547 1549 1550 1551 1552 1553 1554 1555 1556 1556 1557 1558 1559 1560 1560 1561 1561 1562 1562 1562 1563 1563 1563 1562 1562 1562 1562 1561 1561 1561
1523 1524 1525 1526 1528 1529 1531 1534 1536 1538 1540 1542 1544 1546 1547 1548 1550 1550 1552 1553 1554 1554 1555 1556 1557 1558 1558 1559 1559 1560 1560 1561 1561 1561 1561 1561 1561 1561 1560 1561 1560 1560 1560
1521 1522 1523 1524 1525 1527 1529 1531 1533 1536 1537 1539 1542 1544 1545 1546 1548 1549 1550 1551 1552 1553 1554 1555 1556 1556 1557 1558 1558 1559 1559 1559 1560 1560 1560 1559 1559 1559 1559 1559 1560 1560 1559
1519 1520 1520 1522 1523 1524 1526 1528 1531 1533 1535 1537 1539 1541 1543 1545 1546 1547 1548 1549 1551 1552 1553 1554 1555 1555 1556 1556 1557 1557 1558 1558 1558 1558 1558 1558 1558 1558 1558 1558 1558 1558 1558
1517 1518 1518 1519 1520 1522 1524 1526 1528 1530 1532 1534 1537 1538 1541 1542 1543 1545 1546 1547 1549 1550 1552 1553 1554 1554 1555 1555 1556 1556 1556 1557 1557 1557 1557 1557 1557 1557 1557 1557 1557 1557 1557
1516 1516 1517 1517 1518 1519 1521 1523 1526 1528 1529 1532 1534 1536 1538 1540 1541 1543 1544 1546 1547 1549 1550 1551 1552 1553 1553 1554 1555 1555 1555 1556 1556 1556 1556 1556 1556 1556 1556 1556 1556 1556 1556
1514 1514 1515 1515 1516 1517 1519 1521 1523 1525 1527 1529 1531 1534 1536 1538 1539 1540 1542 1544 1545 1547 1548 1549 1550 1551 1552 1552 1553 1554 1554 1555 1555 1555 1555 1555 1555 1555 1555 1555 1555 1555 1555
1513 1513 1513 1514 1514 1515 1517 1519 1521 1523 1525 1527 1529 1531 1533 1535 1536 1538 1540 1541 1543 1545 1546 1547 1548 1549 1550 1551 1552 1552 1553 1553 1554 1554 1554 1554 1555 1555 1555 1554 1554 1554 1554
1511 1511 1512 1512 1513 1514 1515 1517 1519 1521 1523 1524 1527 1529 1531 1533 1534 1536 1538 1540 1541 1543 1544 1545 1546 1547 1548 1549 1550 1551 1551 1552 1552 1553 1553 1553 1553 1553 1553 1553 1554 1553 1553
1510 1510 1510 1511 1511 1512 1514 1515 1517 1519 1521 1523 1524 1526 1529 1530 1532 1534 1536 1538 1539 1541 1542 1543 1544 1545 1546 1547 1548 1549 1550 1550 1551 1551 1552 1552 1551 1551 1552 1552 1552 1552 1552
1508 1508 1509 1509 1510 1511 1512 1513 1514 1517 1519 1520 1522 1524 1526 1528 1530 1532 1534 1535 1537 1539 1540 1541 1543 1543 1544 1545 1546 1547 1548 1549 1549 1550 1550 1550 1550 1551 1551 1550 1550 1550 1550
1506 1506 1507 1507 1508 1509 1510 1511 1513 1514 1516 1518 1520 1522 1524 1526 1528 1530 1531 1533 1535 1536 1538 1539 1540 1541 1542 1543 1544 1545 1546 1547 1547 1548 1548 1549 1549 1549 1549 1549 1549 1549 1549
1504 1505 1505 1506 1506 1507 1508 1509 1511 1512 1514 1515 1517 1519 1521 1523 1525 1527 1529 1530 1532 1534 1536 1537 1538 1539 1540 1541 1542 1543 1544 1544 1545 1546 1546 1547 1547 1547 1548 1548 1548 1548 1547
1502 1502 1503 1503 1504 1505 1506 1507 1509 1510 1511 1513 1515 1517 1519 1521 1522 1524 1526 1528 1530 1532 1533 1534 1536 1537 1538 1539 1540 1541 1541 1542 1543 1543 1544 1545 1545 1545 1545 1546 1546 1546 1546
1499 1499 1500 1501 1502 1503 1504 1505 1507 1508 1509 1510 1512 1514 1516 1518 1520 1522 1523 1525 1527 1529 1531 1532 1533 1534 1535 1536 1537 1538 1539 1540 1541 1541 1541 1542 1543 1543 1543 1544 1544 1544 1545
1497 1497 1498 1499 1499 1501 1502 1503 1504 1506 1507 1508 1510 1512 1514 1515 1517 1519 1521 1523 1524 1526 1527 1529 1530 1531 1533 1533 1534 1535 1537 1537 1538 1539 1539 1540 1540 1541 1541 1541 1541 1542 1542
1494 1495 1495 1496 1497 1498 1500 1501 1502 1503 1504 1506 1507 1509 1511 1512 1514 1516 1517 1519 1521 1523 1524 1526 1527 1528 1529 1530 1531 1532 1534 1535 1535 1536 1537 1537 1538 1538 1539 1539 1539 1539 1540
1492 1492 1493 1494 1495 1496 1497 1498 1499 1500 1502 1503 1505 1506 1508 1509 1511 1513 1515 1516 1518 1519 1521 1523 1524 1525 1526 1527 1528 1529 1530 1531 1532 1533 1533 1534 1535 1535 1536 1536 1536 1537 1537
1489 1489 1490 1491 1491 1493 1494 1495 1496 1497 1499 1500 1502 1503 1505 1506 1508 1509 1511 1513 1514 1516 1517 1519 1521 1522 1522 1524 1525 1525 1526 1527 1529 1529 1530 1531 1531 1532 1532 1533 1533 1533 1534
1485 1486 1487 1488 1489 1489 1490 1492 1493 1494 1496 1498 1499 1500 1501 1503 1504 1506 1507 1509 1511 1512 1514 1516 1517 1518 1520 1521 1522 1523 1524 1525 1525 1526 1527 1527 1528 1528 1529 1530 1530 1530 1530